THOR ABLESTAR DEB, 5746

Orbit data source: Space-Track

THOR ABLESTAR DEB, 5746 is space debris in LEO originally from a launch on Thu, 29 Jun 1961 UTC launched from the Air Force Eastern Test Range (AFETR). Debris objects in space refer to the collection of defunct objects orbiting the Earth. Examples of debris include non-operational satellites, rocket bodies, and fragments generated from explosions, collisions, or faulty payload assembly.

Loading next visibility...
Identifier
5746, 1961-015JV
Orbit
LEO
Country
Flag of USUS
Related business
Manufacturer
Unknown
Mission
Spacecraft
Bus & Motor
Unknown
Mass
Unknown
Launch date (UTC)
1961-06-29 (64 years ago)
Launch vehicle
Unknown
Launch site
Air Force Eastern Test Range (AFETR)
Object type
Payload
Rocket body
Debris
Shape & HBR
Unknown shape, 0.1 m
Radar Cross Section
Small (<0.1 m²)

Expand to show TLE details & history
Last TLE update: 1 day ago

TLE from 1 day ago
0 THOR ABLESTAR DEB
1 05746U 61015JV  25300.73030314  .00003885  00000-0  19168-2 0  9997
2 05746  66.3054  61.7803 0046058 190.4674 169.5461 14.17951438249355
Epoch: 2025-10-27T17:31Z
TLE epoch observation values (Epoch: 2025-10-27T17:31:38.191Z)
Latitude
0.00002°
Longitude
122.54323°
Altitude
867.021 km
Speed
7.403 km/s
True Right ascension
04h 07m 07s
True Declination
0° 00' 00"
Sunlit
Object was in full shadow at epoch
Visualization orbit readout
Latitude
Unknown
Longitude
Unknown
Altitude
Unknown
Speed
Unknown
Apparent Right ascension
Unknown
Apparent Declination
Unknown
Sunlit
N/A
Visualization observer readout
Local Sidereal Time
18:41:29
Azimuth
Unknown
Elevation
Unknown
Doppler factor
Unknown
Orbital elements
Apogee altitude
863.922 km
Perigee altitude
797.517 km
Semi-major axis
7,208.856 km
Eccentricity
0.00461
Inclination
66.3054°
RAAN
61.7803°
Arg. of periapsis
190.4674°
True anomaly
169.64132°
Mean anomaly
169.5461°
Eccentric anomaly
169.59377°
Mean motion
3.54604 °/min
Orbital period
101.52 mins
BSTAR
0.0019168

Documentation

Showing up to 5 results
|